Regional Weather Roundup
Issued by NWS Upton, NY

Current Version | Previous Version | Graphics & Text | Print | Product List | Glossary Off
Versions: 1 2 3 4 5 6 7 8 9 10 11 12 13 14 15 16 17 18 19 20 21 22 23 24 25 26 27 28 29 30 31 32 33 34 35 36 37 38 39 40 41 42 43 44 45 46 47 48 49 50

000
ASUS41 KOKX 040208
RWROKX

REGIONAL WEATHER ROUNDUP
NATIONAL WEATHER SERVICE NEW YORK NY
1000 PM EDT FRI JUL 03 2015

NOTE: "FAIR" INDICATES FEW OR NO CLOUDS BELOW 12,000 FEET WITH NO
SIGNIFICANT WEATHER AND/OR OBSTRUCTIONS TO VISIBILITY.

NYZ071-072-176-178-NJZ106-104-040300-
NEW YORK CITY METRO AREA


CITY           SKY/WX    TMP DP  RH WIND       PRES   REMARKS
CENTRAL PARK   CLOUDY    73  58  59 VRB3      30.00R
LAGUARDIA APRT CLOUDY    73  58  59 S9        29.97R
KENNEDY INTL   CLOUDY    72  64  76 SE6       29.99R
NEWARK/LIBERTY CLOUDY    74  61  63 S7        29.97R
BRNX BOT. GARD   N/A     72  57  60 W2        29.99R
TETERBORO      CLOUDY    74  58  57 S7        29.96R
$$

NYZ177-179-078>081-040300-
LONG ISLAND NEW YORK

CITY           SKY/WX    TMP DP  RH WIND       PRES   REMARKS
FARMINGDALE    CLOUDY    70  58  65 S6        29.99R
ISLIP          CLOUDY    70  59  68 S7        29.98R
SHIRLEY        MOCLDY    67  60  78 CALM      30.00R
WESTHAMPTON    MOCLDY    62  60  93 CALM      30.01R
MONTAUK POINT    N/A     68  62  81 S5        30.01R
$$

NYZ052-065-067-040300-
HUDSON VALLEY

CITY           SKY/WX    TMP DP  RH WIND       PRES   REMARKS
WHITE PLAINS   CLOUDY    67  59  75 CALM      29.99R
NEWBURGH       MOCLDY    70  55  60 VRB5      29.99R
MONTGOMERY     CLOUDY    65  59  81 CALM      29.97R
POUGHKEEPSIE   CLOUDY    67  57  70 CALM      29.96R
ALBANY         MOCLDY    66  50  56 CALM      29.97S
$$

NJZ001-105-106-008-010-013-015-019>022-104-040300-
NEW JERSEY

CITY           SKY/WX    TMP DP  RH WIND       PRES   REMARKS
NEWARK/LIBERTY CLOUDY    74  61  63 S7        29.97R
TETERBORO      CLOUDY    74  58  57 S7        29.96R
CALDWELL       CLOUDY    72  59  63 CALM      29.97R
MORRISTOWN     NOT AVBL
SOMERVILLE     CLOUDY    71  61  70 CALM      29.95R
SUSSEX         CLOUDY    66  61  84 CALM      29.97R
ANDOVER          N/A     65  61  87 CALM      29.98R
TRENTON        CLOUDY    73  63  70 S8        29.96R
MILLVILLE      CLOUDY    69  65  86 SE3       29.97S
ATLANTIC CITY  CLOUDY    69  64  84 SE3       29.98R
WRIGHTSTOWN    CLOUDY    69  61  76 S7        29.96R
TOMS RIVER     CLOUDY    66  59  77 CALM      29.99R
BELMAR         CLOUDY    70  57  64 CALM      29.98S
$$

PAZ047>061-062-071-040300-
EASTERN PENNSYLVANIA

CITY           SKY/WX    TMP DP  RH WIND       PRES   REMARKS
PHILADELPHIA   CLOUDY    74  64  71 S7        29.97R
ALLENTOWN      MOCLDY    75  61  61 S3        29.96R
SCRANTON       MOCLDY    72  59  63 SW5       29.96R
$$

CTZ002-004>006-009-010-012-RIZ004-006-007-MAZ004-011-015-040300-
SOUTHERN NEW ENGLAND
 IN CT

CITY           SKY/WX    TMP DP  RH WIND       PRES   REMARKS
BRADLEY INTL   CLOUDY    69  54  58 S6        29.97R
HARTFORD       CLOUDY    67  56  67 SE9       29.98R
DANBURY        CLOUDY    68  52  56 S5        30.00R
WTRBRY/OXFORD  MOCLDY    64  54  68 CALM      30.01R
BRIDGEPORT     MOCLDY    70  60  70 S7        29.98R
MERIDEN        MOCLDY    65  57  75 CALM      29.99R
NEW HAVEN      MOCLDY    67  61  81 S5        29.99R
CHESTER        FAIR      64  59  82 CALM      30.01R
GROTON         PTCLDY    64  60  87 SE3       29.99R
WILLIMANTIC    MOCLDY    67  56  67 CALM      30.00R

 IN RI

CITY           SKY/WX    TMP DP  RH WIND       PRES   REMARKS
PROVIDENCE     MOCLDY    66  55  67 S6        30.01R
BLOCK ISLAND   PTCLDY    64  61  88 S8        30.01R
WESTERLY       MOCLDY    64  58  80 CALM      30.01R

 IN MA

CITY           SKY/WX    TMP DP  RH WIND       PRES   REMARKS
BOSTON         MOCLDY    70  56  61 SW13      29.98R
WORCESTER      MOCLDY    68  50  52 S7        30.01R
WESTFIELD      MOCLDY    63  59  87 CALM      29.98R
PROVINCETOWN   MOCLDY    63   7  11 S10       30.01R
NANTUCKET      PTCLDY    58  55  90 S5        30.02R
$$

ANZ330-335-338-340-345-350-353-355-040300-
COASTAL MARINE OBSERVATIONS


STATION/POSITION TIME  SKY/WX   TEMP    WIND        PRES    VSBY  WAVE
                                AIR SEA DIR/SP/G                  HT/PER
                 (UTC)          (F)     (DEG/KT/KT) (MB)    (MI)  (FT/S)
NY HARB ENTRANCE 0150            70 69  160/  6/  8 1014.9          3/ 8
4S FIRE IS       0103               70                N/A           3/ 8
20S FIRE ISLAND  0150            70 69  170/  6/  6 1015.3          3/ 8
GREAT SOUTH BAY  0115            71 76  190/  8/  8   N/A
23SW MTP         0150            68 68  160/  6/  6 1015.6          3/ 7
HUDSON CANYON    NOT AVBL
KINGS POINT      0100            72 69  190/  9/ 11 1013.9
CENTRAL LI SOUND NOT AVBL
EASTERN LI SOUND 0100            66 65  190/  4/  6   N/A
ROBBINS REEF     0100            72     150/ 13/ 14 1013.1
$$


>>>>>>>>>>>>>>>>>>>>>>>>>>>> KEY <<<<<<<<<<<<<<<<<<<<<<<<<<<
>                                                          <
>     SKY/WX - SKY CONDITION/PRESENT WEATHER               <
>     TMP    - TEMPERATURE IN FAHRENHEIT                   <
>     DP     - DEWPOINT IN FAHRENHEIT                      <
>     RH     - RELATIVE HUMIDITY IN PERCENT                <
>     WIND   - DIRECTION AND SPEED IN MPH                  <
>     PRES   - MEAN SEA LEVEL PRESSURE IN INCHES OF HG     <
>     WCI    - WIND CHILL INDEX                            <
>     VSB    - VISIBILITY IN MILES                         <
>     HX     - HEAT INDEX                                  <
>     TC     - TEMPERATURE IN CELSIUS                      <
>     VRB    - VARIABLE WIND DIRECTION                     <
>                                                          <
>>>>>>>>>>>>>>>>>>>>>>>>>>>> KEY <<<<<<<<<<<<<<<<<<<<<<<<<<<




USA.gov is the U.S. government's official web portal to all federal, state and local government web resources and services.